SCP
-0 0 0 0 0 0 0 -0 0 -0 0 -0 0 0 -0 0 0 -0 -0 -0 -0 -0 -0 -0 -0 -0 0 0 0 0 0 0 0 0 0 0 -0 -0 -0 0 0 0 -0 -0
-0 -0 -0 0 0 0 0 0 -0 -0 -0 -0 0 0 0 0 -0 -0 -0 -0 -0 -0 -0 -0 -0 -0 0 0 -0 -0 0 0 0 -0 -0 -0 -0 -0 -0 -0 -0 -0 0 -0
0 0 -0 -0 0 0 0 0 0 0 -0 -0 -0 0 0 0 -0 -0 -0 -0 -0 -0 -0 -0 -0 -0 -0 -0 -0 -0 -0 -0 -0 -0 -0 -0 -0 -0 -0 -0 -0 0 0 0
0 0 0 0 0 0 0 0 0 0 0 0 0 -0 -0 0 -0 -0 -0 -0 -0 -0 -0 -0 -0 -0 0 0 0 -0 -0 -0 -0 0 -0 -0 -0 -0 0 -0 0 0 0 -0
0 0 0 0 0 0 0 0 0 0 0 0 0 0 0 -0 0 -0 -0 -0 -0 -0 -0 -0 -0 -0 -0 0 0 0 -0 -0 -0 -0 0 0 -0 0 0 0 0 0 0 0
0 0 0 0 0 0 0 0 0 0 0 0 0 0 -0 0 0 0 -0 -0 -0 -0 -0 -0 -0 -0 -0 0 0 0 0 0 0 -0 0 0 0 0 0 0 0 0 -0 0
0 0 0 0 0 0 0 0 0 0 0 0 0 0 0 0 -0 0 -0 -0 -0 -0 -0 -0 -0 -0 -0 -0 -0 0 0 0 0 -0 0 0 0 0 0 0 0 0 -0 -0
0 0 0 0 0 0 0 0 0 0 0 0 0 0 -0 0 -0 0 -0 -0 -0 -0 -0 -0 -0 -0 -0 -0 0 0 0 -0 -0 0 -0 0 -0 0 0 0 0 0 0 0
0 0 0 0 0 0 0 0 0 0 0 0 0 0 0 0 -0 0 0 -0 -0 -0 -0 -0 -0 -0 -0 0 0 0 -0 -0 -0 -0 0 -0 -0 -0 0 0 0 0 0 0
0 0 0 0 0 0 0 0 0 0 0 0 0 0 0 0 0 0 0 0 -0 -0 -0 -0 -0 -0 -0 -0 -0 -0 -0 0 -0 -0 -0 0 0 0 0 0 0 0 0 0
0 0 0 0 0 0 0 0 0 0 0 0 0 0 0 0 0 0 0 0 0 -0 -0 -0 -0 -0 -0 -0 -0 -0 -0 -0 -0 0 0 0 0 0 0 0 0 0 0 0
0 0 0 0 0 0 0 0 0 0 0 0 0 0 0 0 0 0 0 0 0 0 0 -0 -0 -0 -0 -0 -0 -0 -0 -0 -0 0 0 0 0 0 0 0 0 0 0 0
-0 -0 0 0 0 0 0 0 0 0 0 0 0 0 0 0 0 0 0 0 0 0 0 0 -0 -0 -0 -0 -0 -0 -0 0 0 0 0 0 0 0 0 0 0 0 0 0
-0 -0 0 0 0 0 0 0 0 0 0 0 0 0 0 0 0 0 0 0 0 0 0 0 0 0 -0 -0 -0 -0 -0 -0 0 0 0 0 0 0 0 0 0 0 0 0
0 -0 -0 -0 0 0 0 0 0 0 0 0 0 0 0 0 0 0 0 0 0 0 0 0 0 0 0 0 -0 -0 0 0 0 0 0 0 0 0 0 0 0 0 0 0
0 0 -0 -0 -0 0 0 0 0 0 0 0 0 0 0 0 0 0 0 0 0 0 0 0 0 0 0 0 0 0 0 0 0 0 0 0 0 0 0 0 0 0 0 0
0 0 0 0 -0 0 0 0 0 0 0 0 0 0 0 0 0 0 0 0 0 0 0 0 0 0 0 0 0 0 0 0 0 0 0 0 0 0 0 0 0 0 0 0
0 0 0 0 0 -0 0 0 0 0 0 0 0 0 0 0 0 0 0 0 0 0 0 0 0 0 0 0 0 0 0 0 0 0 0 0 0 0 0 0 0 0 0 0
-0 0 0 0 0 0 -0 0 0 0 0 0 0 0 0 0 0 0 0 0 0 0 0 0 0 0 0 0 0 0 0 0 0 0 0 0 0 0 0 0 0 0 0 0
0 0 0 0 0 0 0 -0 0 0 0 0 0 0 0 0 0 0 0 0 0 0 0 0 0 0 -0 0 0 0 0 0 0 0 0 0 0 0 0 0 0 0 0 0
0 0 0 0 0 0 0 0 0 -0 0 0 0 0 0 0 0 0 0 0 0 0 0 0 0 0 0 0 0 0 0 0 0 0 0 0 0 0 0 0 0 0 0 0
-0 -0 0 0 0 0 0 0 0 0 0 0 0 0 0 0 0 0 0 0 0 0 0 0 0 0 0 -0 -0 0 0 0 0 0 0 0 0 0 0 0 0 0 0 0
-0 -0 0 0 0 0 0 0 0 0 0 0 0 0 0 0 0 0 0 0 0 0 0 0 0 0 -0 -0 0 0 0 0 0 0 0 0 0 0 0 0 0 0 0 0
-0 -0 -0 -0 0 0 0 0 0 0 0 0 0 0 0 0 0 0 0 0 0 0 0 0 0 0 0 0 0 0 -0 0 0 0 0 0 0 0 0 0 0 0 0 0
-0 -0 -0 -0 0 0 0 0 0 0 0 0 0 0 0 0 0 0 0 0 0 0 0 0 0 0 0 0 0 0 -0 -0 0 0 0 0 0 0 0 0 0 0 0 0
-0 -0 -0 -0 -0 -0 -0 -0 0 0 0 0 0 0 0 0 0 0 0 0 0 0 0 0 0 0 0 0 0 -0 -0 0 0 0 0 0 0 0 0 0 0 0 0 0
-0 -0 -0 -0 -0 -0 -0 -0 0 0 0 0 0 0 0 0 0 0 0 0 0 0 0 0 0 0 0 0 0 0 0 0 0 0 0 0 0 0 0 0 0 0 0 0
Wind_Speed_500mb
21 26 14 11 25 38 35 43 26 10 16 13 16 18 14 36 42 48 51 58 69 70 59 53 47 42 34 34 30 26 22 20 14 12 6 11 24 26 29 30 26 24 25 26
8 15 32 26 21 31 46 41 36 7 21 18 7 13 18 45 51 53 58 64 69 67 61 57 50 46 37 38 34 30 26 23 19 17 12 20 29 30 29 27 26 24 21 20
9 15 8 18 37 21 17 25 36 25 48 9 9 16 24 48 58 62 65 70 72 70 64 58 53 50 43 41 38 34 29 27 27 24 20 24 30 30 26 21 21 21 18 15
7 9 11 5 23 18 27 15 15 16 10 14 22 59 58 61 70 68 66 71 71 68 65 55 50 51 43 42 42 38 34 31 34 31 22 23 27 26 23 19 19 18 15 15
4 5 7 11 21 17 9 8 19 19 24 18 44 7 14 59 71 73 72 71 69 65 62 53 53 54 50 46 46 41 40 35 37 34 26 30 24 21 18 16 18 17 15 17
1 4 7 18 31 19 6 7 25 24 24 27 32 8 12 61 66 66 65 62 66 65 65 54 56 58 57 52 51 47 44 41 36 40 33 29 23 21 16 13 15 17 17 18
4 4 2 27 34 4 13 10 38 34 33 29 10 17 49 33 70 70 70 63 65 67 70 60 59 62 64 59 56 49 44 41 38 43 38 31 27 22 20 11 13 16 20 22
5 3 5 40 12 14 11 25 32 40 36 43 50 59 56 40 53 66 70 63 67 71 71 67 62 65 67 66 52 49 47 46 42 44 42 39 29 30 23 14 12 18 19 22
9 4 17 30 6 9 24 35 38 44 54 52 51 53 41 44 38 70 70 72 68 75 74 73 71 68 66 62 58 53 48 49 47 41 45 43 37 33 29 24 16 19 24 25
8 12 26 47 15 30 41 49 55 55 56 52 53 48 37 36 39 59 73 80 73 77 78 77 76 72 61 57 57 57 53 54 50 47 49 47 43 37 34 31 26 19 26 31
3 13 33 16 34 50 60 54 60 57 59 62 53 49 31 25 42 56 76 87 80 75 77 77 78 74 68 61 60 59 57 56 55 52 48 48 47 45 43 36 30 23 23 28
2 7 17 34 50 62 55 57 61 58 63 69 59 57 31 17 42 57 72 87 84 76 74 72 69 72 71 65 64 62 61 62 61 58 57 53 49 49 46 40 34 29 22 16
7 17 31 65 55 43 51 65 56 53 48 60 66 53 34 9 30 51 64 79 88 83 78 72 65 67 71 69 68 67 66 65 68 62 61 63 60 55 55 49 44 40 35 28
17 23 26 39 38 62 66 54 51 46 41 51 63 56 40 12 20 50 62 73 85 85 77 72 70 66 65 68 70 70 69 65 66 68 67 63 66 61 56 55 54 49 41 39
24 26 36 52 60 52 61 49 53 49 43 46 54 61 47 26 14 34 47 59 66 81 80 74 70 69 65 67 71 75 75 73 69 70 68 65 59 62 60 54 52 52 48 47
42 42 38 37 47 49 54 51 53 54 42 38 42 51 56 37 18 12 32 40 56 64 82 78 74 73 71 72 74 78 77 75 75 72 73 70 68 64 64 62 55 51 49 47
32 32 45 46 46 51 52 54 51 48 44 36 36 39 45 41 22 16 26 38 36 38 56 78 81 76 75 71 74 73 78 79 79 80 76 76 73 73 70 70 68 60 51 42
31 40 40 42 49 50 50 53 50 44 41 35 33 35 36 37 37 24 8 21 33 40 48 59 67 71 64 68 75 74 73 76 78 82 86 81 80 74 71 67 68 70 63 56
32 38 47 46 49 52 52 52 53 51 45 43 44 33 31 29 30 27 13 1 24 31 34 34 48 47 55 56 62 71 77 72 75 77 79 85 84 84 76 69 65 62 64 66
42 42 46 55 52 53 56 55 53 54 50 45 45 42 34 25 28 31 22 12 12 28 36 33 23 9 22 43 47 60 61 81 72 73 75 78 76 81 81 78 70 65 64 64
51 51 45 47 53 52 50 52 54 59 52 46 39 44 35 23 22 34 32 22 15 14 35 38 40 40 25 30 25 50 63 67 82 70 71 68 68 65 66 68 71 66 60 58
47 49 56 52 61 60 51 47 50 55 57 53 41 38 36 27 18 25 28 17 22 26 28 36 54 60 74 93 63 51 63 73 79 67 59 62 56 47 50 52 58 57 57 61
54 56 63 58 51 49 40 42 46 44 61 57 41 38 40 36 29 21 33 27 23 30 36 37 39 51 72 74 62 67 69 72 75 75 61 59 54 50 45 46 46 52 48 51
53 47 56 64 60 51 47 42 39 41 55 64 48 41 48 51 53 37 25 19 23 12 14 43 51 48 43 53 73 45 72 71 73 73 62 61 58 54 52 52 54 52 46 43
51 51 55 57 56 62 63 63 43 41 42 57 61 53 50 49 49 34 40 31 25 8 9 23 30 39 42 45 38 56 56 66 88 50 50 54 55 56 55 54 54 50 46 45
50 56 52 59 48 56 61 75 66 47 42 48 61 63 59 58 52 46 44 40 32 24 16 16 36 42 28 32 64 88 80 63 51 43 45 43 42 41 40 38 38 38 39 37
50 51 52 52 58 59 59 65 72 68 37 37 46 53 66 65 62 58 54 52 41 27 26 18 40 42 35 26 38 63 60 53 40 41 43 42 42 41 38 36 34 33 31 31
Wind_Direction_500mb
300 288 282 171 181 200 204 214 213 223 241 250 249 239 235 170 165 168 176 180 180 181 180 183 184 184 186 182 180 180 180 182 164 143 95 103 125 127 126 127 128 128 127 131
285 261 274 266 255 214 200 208 229 243 252 228 264 157 180 165 172 178 185 188 186 184 184 187 186 188 189 185 185 186 184 181 166 150 106 116 128 125 126 126 127 129 128 124
303 339 241 258 237 229 209 226 207 197 236 148 202 215 192 174 188 190 193 191 189 190 188 188 187 190 190 188 187 192 186 180 168 158 121 121 124 117 119 133 138 133 131 130
267 302 168 265 26 219 205 53 351 269 324 230 203 215 198 195 199 199 200 196 193 192 190 189 186 190 187 189 189 193 191 184 177 170 157 130 130 118 105 122 142 148 137 131
186 262 266 22 22 350 15 75 9 344 341 339 336 299 207 203 210 206 207 199 195 192 187 184 186 187 189 191 192 193 195 189 186 184 183 173 158 135 108 97 131 142 139 127
90 209 174 356 320 298 151 178 356 346 335 333 333 163 236 206 215 210 211 201 194 192 188 184 185 187 190 193 195 196 194 191 188 188 185 182 175 171 148 98 127 132 138 133
228 242 30 347 326 155 149 288 318 325 320 320 301 257 290 329 214 215 209 203 192 192 189 185 186 189 194 196 199 193 195 191 193 193 190 187 184 181 172 150 136 134 134 138
183 221 131 354 5 63 278 299 313 324 322 313 309 304 288 280 238 209 202 200 192 192 193 189 189 192 196 200 192 193 197 198 197 197 195 195 192 185 182 182 158 164 150 143
8 28 328 339 336 352 339 309 325 326 329 332 324 318 296 266 247 221 200 202 193 192 194 194 194 196 199 201 196 194 199 200 200 199 202 201 200 199 195 194 190 181 181 170
329 332 317 308 300 348 341 336 339 347 340 346 331 332 308 263 242 222 204 202 194 192 197 199 198 201 205 199 195 198 200 202 198 204 205 206 208 211 208 207 204 203 197 194
259 306 326 63 333 333 330 341 341 352 360 354 350 347 325 262 233 226 214 202 196 193 198 204 202 203 206 206 200 199 202 205 203 203 208 207 211 212 215 219 222 218 220 210
63 297 286 288 319 324 330 332 342 342 353 6 360 348 337 277 220 224 211 206 198 197 201 207 205 205 208 209 206 204 203 206 207 205 209 209 210 216 219 220 220 228 238 245
236 306 290 297 307 327 326 328 338 336 345 358 3 354 346 319 209 214 210 209 205 200 204 207 209 206 210 210 209 209 209 205 207 207 209 215 215 217 223 226 227 231 234 233
334 307 311 304 313 317 320 326 330 331 340 4 7 6 6 18 193 201 208 215 212 209 207 210 210 209 209 208 211 213 213 213 209 209 208 216 220 220 224 229 230 231 228 228
325 310 285 295 306 314 320 328 331 334 342 351 8 7 12 37 142 184 205 217 215 218 216 211 212 211 210 208 209 214 214 215 213 214 214 214 220 225 226 227 229 231 232 231
314 309 306 305 305 303 308 320 328 330 330 334 352 2 9 14 49 151 194 209 212 214 219 217 216 211 210 210 211 214 217 220 217 216 217 218 219 222 226 229 229 230 231 234
303 308 322 318 317 316 308 309 314 319 318 317 322 344 359 1 39 113 156 187 210 219 223 219 219 221 219 215 214 216 218 221 222 222 222 221 224 227 230 233 234 232 230 232
306 310 318 317 302 296 303 301 302 304 311 303 313 324 336 352 5 13 68 163 177 205 218 221 225 227 228 223 220 217 220 223 224 225 226 226 227 230 232 235 238 239 239 239
314 306 312 310 310 306 293 290 289 289 292 293 302 307 317 326 339 340 335 229 184 180 180 201 223 223 226 229 227 227 226 224 225 228 231 231 231 232 234 236 239 241 243 243
332 325 317 313 308 302 302 287 281 282 282 286 290 286 296 302 316 322 317 290 243 211 193 170 167 164 239 227 225 229 229 235 225 228 231 235 235 236 236 237 239 241 244 241
352 340 324 317 314 307 300 293 280 275 277 281 274 271 284 271 298 306 309 291 267 248 227 219 228 223 242 256 267 238 230 227 232 225 229 232 237 239 238 237 238 240 242 245
359 351 348 337 329 316 303 289 279 270 268 271 259 262 267 251 274 277 298 304 258 245 225 201 207 211 225 259 255 259 244 236 233 225 221 227 229 227 231 232 236 235 240 248
356 1 357 346 343 335 317 298 275 263 261 261 259 248 247 257 269 282 272 280 280 259 237 207 204 214 236 244 250 261 249 245 239 238 221 220 219 223 230 230 237 249 251 254
351 352 358 357 358 355 354 337 310 275 254 259 256 237 243 257 263 273 267 266 246 319 249 224 233 241 251 238 235 252 255 246 237 227 219 225 229 231 231 231 238 241 238 238
5 356 352 352 353 354 352 357 328 298 267 250 258 243 237 247 258 278 280 266 270 249 281 244 241 222 234 239 225 267 285 238 235 213 218 221 223 225 228 230 233 238 238 239
2 2 359 2 357 2 360 4 356 325 297 271 252 253 249 246 252 255 273 262 264 259 211 218 233 228 227 202 219 257 257 233 211 205 211 212 212 212 216 222 226 229 230 230
5 9 13 15 22 13 11 12 10 3 333 289 276 259 250 251 251 256 258 256 257 262 240 207 204 181 171 179 201 250 227 210 200 197 197 200 200 200 201 204 206 211 217 223
Wind_Speed_850mb
21 26 14 11 25 38 35 43 26 10 16 13 16 18 14 36 42 48 51 58 69 70 59 53 47 42 34 34 30 26 22 20 14 12 6 11 24 26 29 30 26 24 25 26
8 15 32 26 21 31 46 41 36 7 21 18 7 13 18 45 51 53 58 64 69 67 61 57 50 46 37 38 34 30 26 23 19 17 12 20 29 30 29 27 26 24 21 20
9 15 8 18 37 21 17 25 36 25 48 9 9 16 24 48 58 62 65 70 72 70 64 58 53 50 43 41 38 34 29 27 27 24 20 24 30 30 26 21 21 21 18 15
7 9 11 5 23 18 27 15 15 16 10 14 22 59 58 61 70 68 66 71 71 68 65 55 50 51 43 42 42 38 34 31 34 31 22 23 27 26 23 19 19 18 15 15
4 5 7 11 21 17 9 8 19 19 24 18 44 7 14 59 71 73 72 71 69 65 62 53 53 54 50 46 46 41 40 35 37 34 26 30 24 21 18 16 18 17 15 17
1 4 7 18 31 19 6 7 25 24 24 27 32 8 12 61 66 66 65 62 66 65 65 54 56 58 57 52 51 47 44 41 36 40 33 29 23 21 16 13 15 17 17 18
4 4 2 27 34 4 13 10 38 34 33 29 10 17 49 33 70 70 70 63 65 67 70 60 59 62 64 59 56 49 44 41 38 43 38 31 27 22 20 11 13 16 20 22
5 3 5 40 12 14 11 25 32 40 36 43 50 59 56 40 53 66 70 63 67 71 71 67 62 65 67 66 52 49 47 46 42 44 42 39 29 30 23 14 12 18 19 22
9 4 17 30 6 9 24 35 38 44 54 52 51 53 41 44 38 70 70 72 68 75 74 73 71 68 66 62 58 53 48 49 47 41 45 43 37 33 29 24 16 19 24 25
8 12 26 47 15 30 41 49 55 55 56 52 53 48 37 36 39 59 73 80 73 77 78 77 76 72 61 57 57 57 53 54 50 47 49 47 43 37 34 31 26 19 26 31
3 13 33 16 34 50 60 54 60 57 59 62 53 49 31 25 42 56 76 87 80 75 77 77 78 74 68 61 60 59 57 56 55 52 48 48 47 45 43 36 30 23 23 28
2 7 17 34 50 62 55 57 61 58 63 69 59 57 31 17 42 57 72 87 84 76 74 72 69 72 71 65 64 62 61 62 61 58 57 53 49 49 46 40 34 29 22 16
7 17 31 65 55 43 51 65 56 53 48 60 66 53 34 9 30 51 64 79 88 83 78 72 65 67 71 69 68 67 66 65 68 62 61 63 60 55 55 49 44 40 35 28
17 23 26 39 38 62 66 54 51 46 41 51 63 56 40 12 20 50 62 73 85 85 77 72 70 66 65 68 70 70 69 65 66 68 67 63 66 61 56 55 54 49 41 39
24 26 36 52 60 52 61 49 53 49 43 46 54 61 47 26 14 34 47 59 66 81 80 74 70 69 65 67 71 75 75 73 69 70 68 65 59 62 60 54 52 52 48 47
42 42 38 37 47 49 54 51 53 54 42 38 42 51 56 37 18 12 32 40 56 64 82 78 74 73 71 72 74 78 77 75 75 72 73 70 68 64 64 62 55 51 49 47
32 32 45 46 46 51 52 54 51 48 44 36 36 39 45 41 22 16 26 38 36 38 56 78 81 76 75 71 74 73 78 79 79 80 76 76 73 73 70 70 68 60 51 42
31 40 40 42 49 50 50 53 50 44 41 35 33 35 36 37 37 24 8 21 33 40 48 59 67 71 64 68 75 74 73 76 78 82 86 81 80 74 71 67 68 70 63 56
32 38 47 46 49 52 52 52 53 51 45 43 44 33 31 29 30 27 13 1 24 31 34 34 48 47 55 56 62 71 77 72 75 77 79 85 84 84 76 69 65 62 64 66
42 42 46 55 52 53 56 55 53 54 50 45 45 42 34 25 28 31 22 12 12 28 36 33 23 9 22 43 47 60 61 81 72 73 75 78 76 81 81 78 70 65 64 64
51 51 45 47 53 52 50 52 54 59 52 46 39 44 35 23 22 34 32 22 15 14 35 38 40 40 25 30 25 50 63 67 82 70 71 68 68 65 66 68 71 66 60 58
47 49 56 52 61 60 51 47 50 55 57 53 41 38 36 27 18 25 28 17 22 26 28 36 54 60 74 93 63 51 63 73 79 67 59 62 56 47 50 52 58 57 57 61
54 56 63 58 51 49 40 42 46 44 61 57 41 38 40 36 29 21 33 27 23 30 36 37 39 51 72 74 62 67 69 72 75 75 61 59 54 50 45 46 46 52 48 51
53 47 56 64 60 51 47 42 39 41 55 64 48 41 48 51 53 37 25 19 23 12 14 43 51 48 43 53 73 45 72 71 73 73 62 61 58 54 52 52 54 52 46 43
51 51 55 57 56 62 63 63 43 41 42 57 61 53 50 49 49 34 40 31 25 8 9 23 30 39 42 45 38 56 56 66 88 50 50 54 55 56 55 54 54 50 46 45
50 56 52 59 48 56 61 75 66 47 42 48 61 63 59 58 52 46 44 40 32 24 16 16 36 42 28 32 64 88 80 63 51 43 45 43 42 41 40 38 38 38 39 37
50 51 52 52 58 59 59 65 72 68 37 37 46 53 66 65 62 58 54 52 41 27 26 18 40 42 35 26 38 63 60 53 40 41 43 42 42 41 38 36 34 33 31 31
Wind_Direction_850mb
300 288 282 171 181 200 204 214 213 223 241 250 249 239 235 170 165 168 176 180 180 181 180 183 184 184 186 182 180 180 180 182 164 143 95 103 125 127 126 127 128 128 127 131
285 261 274 266 255 214 200 208 229 243 252 228 264 157 180 165 172 178 185 188 186 184 184 187 186 188 189 185 185 186 184 181 166 150 106 116 128 125 126 126 127 129 128 124
303 339 241 258 237 229 209 226 207 197 236 148 202 215 192 174 188 190 193 191 189 190 188 188 187 190 190 188 187 192 186 180 168 158 121 121 124 117 119 133 138 133 131 130
267 302 168 265 26 219 205 53 351 269 324 230 203 215 198 195 199 199 200 196 193 192 190 189 186 190 187 189 189 193 191 184 177 170 157 130 130 118 105 122 142 148 137 131
186 262 266 22 22 350 15 75 9 344 341 339 336 299 207 203 210 206 207 199 195 192 187 184 186 187 189 191 192 193 195 189 186 184 183 173 158 135 108 97 131 142 139 127
90 209 174 356 320 298 151 178 356 346 335 333 333 163 236 206 215 210 211 201 194 192 188 184 185 187 190 193 195 196 194 191 188 188 185 182 175 171 148 98 127 132 138 133
228 242 30 347 326 155 149 288 318 325 320 320 301 257 290 329 214 215 209 203 192 192 189 185 186 189 194 196 199 193 195 191 193 193 190 187 184 181 172 150 136 134 134 138
183 221 131 354 5 63 278 299 313 324 322 313 309 304 288 280 238 209 202 200 192 192 193 189 189 192 196 200 192 193 197 198 197 197 195 195 192 185 182 182 158 164 150 143
8 28 328 339 336 352 339 309 325 326 329 332 324 318 296 266 247 221 200 202 193 192 194 194 194 196 199 201 196 194 199 200 200 199 202 201 200 199 195 194 190 181 181 170
329 332 317 308 300 348 341 336 339 347 340 346 331 332 308 263 242 222 204 202 194 192 197 199 198 201 205 199 195 198 200 202 198 204 205 206 208 211 208 207 204 203 197 194
259 306 326 63 333 333 330 341 341 352 360 354 350 347 325 262 233 226 214 202 196 193 198 204 202 203 206 206 200 199 202 205 203 203 208 207 211 212 215 219 222 218 220 210
63 297 286 288 319 324 330 332 342 342 353 6 360 348 337 277 220 224 211 206 198 197 201 207 205 205 208 209 206 204 203 206 207 205 209 209 210 216 219 220 220 228 238 245
236 306 290 297 307 327 326 328 338 336 345 358 3 354 346 319 209 214 210 209 205 200 204 207 209 206 210 210 209 209 209 205 207 207 209 215 215 217 223 226 227 231 234 233
334 307 311 304 313 317 320 326 330 331 340 4 7 6 6 18 193 201 208 215 212 209 207 210 210 209 209 208 211 213 213 213 209 209 208 216 220 220 224 229 230 231 228 228
325 310 285 295 306 314 320 328 331 334 342 351 8 7 12 37 142 184 205 217 215 218 216 211 212 211 210 208 209 214 214 215 213 214 214 214 220 225 226 227 229 231 232 231
314 309 306 305 305 303 308 320 328 330 330 334 352 2 9 14 49 151 194 209 212 214 219 217 216 211 210 210 211 214 217 220 217 216 217 218 219 222 226 229 229 230 231 234
303 308 322 318 317 316 308 309 314 319 318 317 322 344 359 1 39 113 156 187 210 219 223 219 219 221 219 215 214 216 218 221 222 222 222 221 224 227 230 233 234 232 230 232
306 310 318 317 302 296 303 301 302 304 311 303 313 324 336 352 5 13 68 163 177 205 218 221 225 227 228 223 220 217 220 223 224 225 226 226 227 230 232 235 238 239 239 239
314 306 312 310 310 306 293 290 289 289 292 293 302 307 317 326 339 340 335 229 184 180 180 201 223 223 226 229 227 227 226 224 225 228 231 231 231 232 234 236 239 241 243 243
332 325 317 313 308 302 302 287 281 282 282 286 290 286 296 302 316 322 317 290 243 211 193 170 167 164 239 227 225 229 229 235 225 228 231 235 235 236 236 237 239 241 244 241
352 340 324 317 314 307 300 293 280 275 277 281 274 271 284 271 298 306 309 291 267 248 227 219 228 223 242 256 267 238 230 227 232 225 229 232 237 239 238 237 238 240 242 245
359 351 348 337 329 316 303 289 279 270 268 271 259 262 267 251 274 277 298 304 258 245 225 201 207 211 225 259 255 259 244 236 233 225 221 227 229 227 231 232 236 235 240 248
356 1 357 346 343 335 317 298 275 263 261 261 259 248 247 257 269 282 272 280 280 259 237 207 204 214 236 244 250 261 249 245 239 238 221 220 219 223 230 230 237 249 251 254
351 352 358 357 358 355 354 337 310 275 254 259 256 237 243 257 263 273 267 266 246 319 249 224 233 241 251 238 235 252 255 246 237 227 219 225 229 231 231 231 238 241 238 238
5 356 352 352 353 354 352 357 328 298 267 250 258 243 237 247 258 278 280 266 270 249 281 244 241 222 234 239 225 267 285 238 235 213 218 221 223 225 228 230 233 238 238 239
2 2 359 2 357 2 360 4 356 325 297 271 252 253 249 246 252 255 273 262 264 259 211 218 233 228 227 202 219 257 257 233 211 205 211 212 212 212 216 222 226 229 230 230
5 9 13 15 22 13 11 12 10 3 333 289 276 259 250 251 251 256 258 256 257 262 240 207 204 181 171 179 201 250 227 210 200 197 197 200 200 200 201 204 206 211 217 223